Home > Weather > Daly City > Past weeks

Flag for USA Past Weather in Daly City, California, USA — Yesterday and Last 2 Weeks

Now
56 °F

Clear.


Feels Like: 53 °F
Forecast: 53 / 67 °F
Wind: 10 mph from West

Location: San Francisco International Airport

Current Time: Jun 25, 2016 at 3:41:17 AM

Latest Report: Jun 25, 2016 at 2:56 AM


Visibility: 10 mi

Pressure: 29.96 "Hg

Humidity: 75%

Dew Point: 48 °F

Location of Daly CityLocation

Past Weather in Daly City — Graph

°F

Daly City Temperature Yesterday

Maximum temperature yesterday: 72 °F (at 1:56 PM)
Minimum temperature yesterday: 54 °F (at 3:56 AM)
Average temperature yesterday: 62 °F

High & Low Weather Summary for the Past Weeks

 TemperatureHumidityPressure
High82 °F (Jun 19, 1:56 PM)93% (Jun 24, 2:56 AM)30.20 "Hg (Jun 24, 2:56 AM)
Low52 °F (Jun 11, 5:56 AM)27% (Jun 11, 2:56 PM)29.88 "Hg (Jun 11, 6:56 PM)
Average62 °F64%30.04 "Hg
* Reported Jun 10 1:56 AM — Jun 25 1:56 AM, Daly City, Weather by CustomWeather, © 2016

Note: Actual official high and low records may vary slightly from our data, if they occured in-between our weather recording intervals... More about our weather records

Advertising

Daly City Weather History for the Previous 24 Hours

Scroll right to see more
 ConditionsComfort  
Time TempWeatherWind HumidityBarometerVisibility
1:56 AM
Sat, Jun 25
57 °FClear.12 mph74%29.97 "Hg10 mi
12:56 AM58 °FClear.14 mph72%29.98 "Hg10 mi
11:56 PM
Fri, Jun 24
58 °FClear.12 mph70%29.99 "Hg10 mi
10:56 PM59 °FClear.12 mph67%29.99 "Hg10 mi
9:56 PM59 °FClear.15 mph69%29.99 "Hg10 mi
8:56 PM61 °FSunny.16 mph62%29.98 "Hg10 mi
7:56 PM66 °FSunny.13 mph52%29.97 "Hg10 mi
6:56 PM67 °FSunny.18 mph51%29.98 "Hg10 mi
5:56 PM68 °FSunny.24 mph49%30.00 "Hg10 mi
4:56 PM69 °FSunny.25 mph47%30.02 "Hg10 mi
3:56 PM69 °FSunny.26 mph47%30.05 "Hg10 mi
2:56 PM71 °FSunny.23 mph47%30.06 "Hg10 mi
1:56 PM72 °FPassing clouds.18 mph46%30.06 "Hg10 mi
12:56 PM70 °FPassing clouds.16 mph49%30.08 "Hg10 mi
11:56 AM67 °FPassing clouds.15 mph57%30.08 "Hg10 mi
10:56 AM63 °FPassing clouds.14 mph65%30.09 "Hg10 mi
9:56 AM61 °FPassing clouds.14 mph70%30.10 "Hg10 mi
8:56 AM60 °FPassing clouds.13 mph72%30.10 "Hg10 mi
7:56 AM57 °FPassing clouds.14 mph81%30.08 "Hg10 mi
6:56 AM54 °FPassing clouds.10 mph90%30.07 "Hg10 mi
5:56 AM54 °FPassing clouds.14 mph90%30.07 "Hg10 mi
4:56 AM54 °FMostly cloudy.18 mph90%30.06 "Hg9 mi
3:56 AM54 °FFog.20 mph93%30.07 "Hg6 mi
Weather by CustomWeather, © 2016

See weather overviewHow to use our weather pages